Regional Weather Roundup
Issued by NWS Northern Indiana

Home | Current Version | Previous Version | Text Only | Print | Product List | Glossary Off
Versions: 1 2 3 4 5 6 7 8 9 10 11 12 13 14 15 16 17 18 19 20 21 22 23 24 25 26 27 28 29 30 31 32 33 34 35 36 37 38 39 40 41 42 43 44 45 46 47 48 49 50

000
ASUS43 KIWX 260610
RWRIWX

KIWX WEATHER ROUNDUP
NATIONAL WEATHER SERVICE NORTHERN INDIANA
200 AM EDT MON JUN 26 2017

NOTE: "FAIR" INDICATES FEW OR NO CLOUDS BELOW 12,000 FEET WITH NO
SIGNIFICANT WEATHER AND/OR OBSTRUCTIONS TO VISIBILITY.

* THESE STATIONS ARE NOT UNDER NWS QUALITY CONTROL. THEY ALSO MAY NOT
  REPORT WEATHER SUCH AS PRECIPITATION OR FOG.

INZ001>027-260700-
NORTHERN INDIANA

CITY           SKY/WX    TMP DP  RH WIND       PRES   REMARKS
GARY*          CLEAR     58  48  69 W6        30.12S
VALPARAISO     CLEAR     58  50  75 SW7       30.11S
6HR MIN TEMP:  57; 6HR MAX TEMP:  70;

MICHIGAN CITY* PTCLDY    59  52  77 W7        30.11R
LAPORTE*       MOCLDY    59  50  71 W7        30.11S
6HR MIN TEMP:  59; 6HR MAX TEMP:  67;

KNOX*          CLEAR     57  37  47 W8        30.10S
SOUTH BEND     PTCLDY    56  52  86 W7        30.10S
6HR MIN TEMP:  55; 6HR MAX TEMP:  68; 6HR PCP:  0.07;

GOSHEN         CLEAR     57  51  80 W5        30.08S
6HR MIN TEMP:  55; 6HR MAX TEMP:  68; 6HR PCP:  0.07;

MONTICELLO*    CLEAR     56  49  77 W5        30.12F
6HR MIN TEMP:  56; 6HR MAX TEMP:  70;

LOGANSPORT*    CLEAR     55  48  76 W7        30.13S
ROCHESTER*     CLOUDY    61  48  63 W8        30.11S
WARSAW*        MOCLDY    55  46  71 W7        30.09S
AUBURN*        PTCLDY    59  46  63 CALM      30.09S
FORT WAYNE     PTCLDY    59  49  69 W9        30.09S
6HR MIN TEMP:  59; 6HR MAX TEMP:  70;

HUNTINGTON*    CLEAR     57  49  73 W8        30.10S
6HR MIN TEMP:  57; 6HR MAX TEMP:  68;

PERU/GRISSOM   CLEAR     55  50  82 W7        30.11S
6HR MIN TEMP:  55; 6HR MAX TEMP:  69;

MARION*        CLEAR     57  48  72 W8        30.13S

$$
INZ028>050-260700-
CENTRAL INDIANA

CITY           SKY/WX    TMP DP  RH WIND       PRES   REMARKS
LAFAYETTE      CLEAR     53  51  93 W3        30.14R
6HR MIN TEMP:  53; 6HR MAX TEMP:  69;

KOKOMO*        CLEAR     58  50  75 W8        30.13F
6HR MIN TEMP:  57; 6HR MAX TEMP:  69;

MUNCIE*        CLEAR     59  50  72 W6        30.12S
6HR MIN TEMP:  59; 6HR MAX TEMP:  72;

INDIANAPOLIS   CLEAR     59  49  69 W7        30.15R
6HR MIN TEMP:  59; 6HR MAX TEMP:  72;


$$
MIZ043>046-050>051-056>058-064>065-071>073-077>080-260700-
SOUTHWEST LOWER MICHIGAN

CITY           SKY/WX    TMP DP  RH WIND       PRES   REMARKS
BATTLE CREEK   PTCLDY    55  50  83 W8        30.05F
6HR MIN TEMP:  55; 6HR MAX TEMP:  67;

BENTON HARBOR  MOCLDY    62  50  64 W12G21    30.07F
6HR MIN TEMP:  61; 6HR MAX TEMP:  68;

COLDWATER*     CLOUDY    57  49  74 SW3       30.07S
6HR MIN TEMP:  55; 6HR MAX TEMP:  68;

HILLSDALE*     MOCLDY    54  45  71 W3        30.06S
HOLLAND        MOCLDY    60  53  77 W9G17     30.05F
6HR MIN TEMP:  60; 6HR MAX TEMP:  67;

GRAND RAPIDS   CLEAR     56  53  90 W8        30.03S
6HR MIN TEMP:  56; 6HR MAX TEMP:  66;

KALAMAZOO      CLEAR     55  48  77 SW6       30.06S
6HR MIN TEMP:  53; 6HR MAX TEMP:  68;

STURGIS*       CLOUDY    59  51  74 W3        30.07S
6HR MIN TEMP:  56; 6HR MAX TEMP:  67;

THREE RIVERS*  FAIR      57  50  77 SW5       30.07S
6HR MIN TEMP:  56; 6HR MAX TEMP:  68;


$$
OHZ001>008-015>018-024>025-260700-
NORTHWEST OHIO

CITY           SKY/WX    TMP DP  RH WIND       PRES   REMARKS
WAUSEON*       CLOUDY    59  48  67 W5        30.05F
DEFIANCE       CLOUDY    61  48  62 W6        30.07S
6HR MIN TEMP:  58; 6HR MAX TEMP:  67;

FINDLAY        PTCLDY    58  46  64 SW5       30.06F
6HR MIN TEMP:  58; 6HR MAX TEMP:  69;

TOLEDO EXPRESS PTCLDY    53  49  86 CALM      30.05F
6HR MIN TEMP:  53; 6HR MAX TEMP:  69;

TOLEDO METCALF CLEAR     60  51  72 SW3       30.06S
6HR MIN TEMP:  59; 6HR MAX TEMP:  71;

LIMA           CLEAR     57  49  74 W6        30.09S
6HR MIN TEMP:  57; 6HR MAX TEMP:  69;


$$
AND FOR LAKE MICHIGAN COASTAL AND OPEN LAKE BUOY OBSERVATIONS

STATION/POSITION TEMP    WIND        PRES    VSBY  WAVE
                 AIR SEA DIR/SP/G                  HT/PER
                 (F)     (DEG/KT/KT) (MB)    (MI)  (FT/S)
CALUMET HARBOR    61     280/  3/  5 1019.0F
MICHIGAN CITY     61     280/ 20/ 22   N/A
BURNS HARBOR      63     310/ 15/ 24 1019.3S
SOUTH LAKE BUOY   60 61  310/ 16/ 19 1017.8F         3/ 5
4 MI NW BRIDGMAN  63 69  320/ 17/ 23 1018.4          6/ 5
MICHIGAN CITY     63 66  300/ 16/ 21   N/A           5/ 5

$$
&&



USA.gov is the U.S. government's official web portal to all federal, state and local government web resources and services.